Weather in Vyazma

Russia / Smolensk Oblast     55°12′21″N   34°17′52″E
temp.,
°C
wind,
m/s
gust,
m/s
humid.,
%
clouds,
%
prec.,
mm/h
press.,
hPa
HPBL,
m
7 may, fri
fri700:00+4sw411945 0.0 1008326
03:00+3sw4119334 0.0 1009296
06:00+2sw39930 0.0 1010263
09:00+7sw6106848 0.0 1011807
12:00+11ssw7105736 0.4 10101688
15:00+11sw6106594 1.6 10101463
18:00+11ssw5970100 0.7 1010920
21:00+7sse3785100 0.8 1009127
8 may, sat
sat800:00+7sse61292100 1.7 1008884
03:00+7sse71494100 3.4 1004820
06:00+8sse51198100 1.9 1003590
09:00+8s3799100 6.5 1002442
12:00+10w5679100 2.1 1002960
15:00+10nw6674100 2.4 10031218
18:00+6nw51187100 0.6 1005958
21:00+5nw51088100 1.8 1008891
9 may, sun
sun900:00+3wnw5118967 0.1 1011516
03:00+2w5129435 0.0 1013517
06:00+1wnw5109590 0.0 1017463
09:00+5nw58718 0.0 1019966
12:00+9nw674894 0.0 10212118
15:00+11nw5739100 0.0 10222502
18:00+11nw35495 0.0 10232145
21:00+6w22665 0.0 102619
10 may, mon
mon1000:00+4wsw33745 0.0 102739
03:00+3sw23745 0.0 102929
06:00+4sw34765 0.0 103084
09:00+10ssw35585 0.0 1031474
12:00+14sw44485 0.0 10301396
15:00+15sw34465 0.0 10301468
18:00+15sw22550 0.0 10291199
21:00+9sw227829 0.0 103015
11 may, tue
tue1100:00+7s22786 0.0 103122
03:00+6s22747 0.0 103221
06:00+6s22755 0.0 103224
09:00+12se345969 0.0 1031405
12:00+16se35475 0.0 10301111
15:00+18ese34435 0.0 10291304
18:00+17ese35565 0.0 1028617
21:00+10ese35795 0.0 102879